Location: McFarlands Corners
(41.4117°N, 81.3382°W)
Time: 17:21:13
(UTC+00:00)

Vanguard 1 Rocket - Pass Details

Date: 19 February 2026
Orbit: 653 x 4214 km, 34.3° (Epoch: 8 March)

Event Time Altitude Azimuth Distance (km) Brightness Sun altitude
Rises 02:04:39 0° 280° (W) 7,181 13.0 -34.5°
Reaches altitude 10° 02:10:31 10° 269° (W) 6,620 12.5 -35.5°
Maximum altitude 02:26:38 25° 224° (SW) 6,145 11.7 -38.4°
Drops below altitude 10° 02:44:29 10° 180° (S) 7,191 11.7 -41.4°
Enters shadow 02:50:55 - 169° (S) 7,813 11.9 -42.5°
Sets 02:51:34 0° 168° (SSE) 7,880 - -42.6°
